Preview of NWS' New Version of Forecast
This preview is not operational and should not be used for support decisions.

Regional Weather Roundup (RWR)

Issued by National Weather Service (NWS)

                            
000
ASUS43 KDTX 192110
RWRMI 
MICHIGAN HOURLY REGIONAL WEATHER ROUNDUP
NATIONAL WEATHER SERVICE DETROIT/PONTIAC MI
500 PM EDT WED JUN 19 2019

NOTE: "FAIR" INDICATES FEW OR NO CLOUDS BELOW 12,000 FEET WITH NO
SIGNIFICANT WEATHER AND/OR OBSTRUCTION TO VISIBILITY.

MIZ047>049-052>055-059>063-066>070-074>076-081>083-192200-
SOUTHEAST LOWER MICHIGAN
  
CITY           SKY/WX    TMP DP  RH WIND       PRES   REMARKS
ADRIAN         FAIR      79  62  56 SE6       29.70F                  
ALMA           PTSUNNY   74  63  67 NE12      29.74F                  
ANN ARBOR      FAIR      78  63  59 E5        29.70F                  
BAD AXE        CLOUDY    63  59  85 NE3       29.76F                  
CARO           LGT RAIN  65  61  88 N3        29.75F                  
DETROIT CITY   FAIR      80  61  52 SE8       29.71F                  
DETROIT        PTSUNNY   79  59  50 SE9       29.71F                  
FLINT          CLOUDY    70  65  84 N10       29.74F                  
GROSSE ILE     FAIR      72  64  73 S7        29.71F                  
HILLSDALE      CLOUDY    78  60  53 CALM      29.71F                  
HOWELL         FAIR      72  63  72 N5        29.73F                  

CITY           SKY/WX    TMP DP  RH WIND       PRES   REMARKS
JACKSON        LGT RAIN  71  69  93 NW6       29.72F FOG              
LAMBERTVILLE   FAIR      78  61  55 E8        29.70F                  
LANSING        FAIR      74  66  76 NE6       29.72F                  
LAPEER         LGT RAIN  69  67  93 NE5       29.75F                  
MASON          PTSUNNY   72  67  87 NE7       29.72F                  
MONROE         FAIR      78  62  59 E10       29.70F                  
MT. CLEMENS    PTSUNNY   77  64  64 SE7       29.71F                  
PONTIAC        CLOUDY    77  65  66 N13       29.71F                  
PORT HOPE        N/A     59  52  77 N3        29.76F                  
PORT HURON     CLOUDY    77  59  53 N5        29.72S                  
TRI CITIES     CLOUDY    66  60  81 NE10      29.76F                  
MIDLAND        CLOUDY    67  59  76 E9        29.76S                  
TROY           FAIR      80  55  42 SW3       29.72F                  
SAGINAW HB     CLOUDY    66  61  82 NE6       29.76S                  
$$
MIZ043>046-050>051-056>058-064>065-071>073-077>080-192200-
SOUTHWEST LOWER MICHIGAN
  
CITY           SKY/WX    TMP DP  RH WIND       PRES   REMARKS
BATTLE CREEK   LGT RAIN  69  66  90 S3        29.73F                  
BENTON HARBOR  FAIR      68  60  75 VRB7      29.71F                  
BIG RAPIDS     CLOUDY    65  62  87 CALM      29.76S                  
COLDWATER      LGT RAIN  70  70 100 N7        29.72S                  
FREMONT        CLOUDY    70  61  74 NE9       29.73F                  
HOLLAND        FAIR      76  61  59 NE5       29.72F                  
GRAND RAPIDS   CLOUDY    78  59  51 N3        29.72F                  
IONIA          CLOUDY    74  60  61 E8        29.71F                  
KALAMAZOO      LGT RAIN  69  66  90 CALM      29.72F                  
LUDINGTON      CLOUDY    65  59  79 N9        29.75F                  
MARSHALL       LGT RAIN  69  69 100 CALM      29.72F                  
MOUNT PLEASANT LGT RAIN  70  62  75 CALM      29.75S                  
MUSKEGON       PTSUNNY   74  60  61 NE10      29.73F                  
SOUTH HAVEN    FAIR      67  61  80 N6        29.72S                  
$$
MIZ016>042-192200-
NORTHERN LOWER MICHIGAN
  
CITY           SKY/WX    TMP DP  RH WIND       PRES   REMARKS
ALPENA         CLOUDY    65  56  72 SE7       29.78F                  
BEAVER ISLAND  PTSUNNY   66  56  68 NW5       29.79F                  
BELLAIRE       FAIR      71  57  60 NW7       29.75F                  
CADILLAC       PTSUNNY   71  61  69 E3        29.76S                  
CHARLEVOIX     FAIR      63  56  79 NW6       29.81F                  
FRANKFORT      FAIR      66  54  65 N12       29.77F                  
GAYLORD        FAIR      72  55  55 NE7       29.76F                  
GRAYLING       FAIR      68  61  77 SE8       29.75F                  
HARBOR SPRINGS FAIR      61  57  86 SW6       29.77F                  
HOUGHTON LAKE  CLOUDY    65  56  72 E5        29.77F                  
MANISTEE       FAIR      64  54  69 NW12      29.76S                  
OSCODA         PTSUNNY   61  50  65 E8        29.77F                  
PELLSTON       PTSUNNY   72  55  55 NE8       29.77F                  
ROGERS CITY    FAIR      63  52  67 NE3       29.79F                  
TRAVERSE CITY  PTSUNNY   66  57  72 NE8       29.76F                  
$$
MIZ007>008-015-192200-
EASTERN UPPER MICHIGAN
  
CITY           SKY/WX    TMP DP  RH WIND       PRES   REMARKS
KINROSS        FAIR      69  56  62 N13       29.78F                  
MACKINAC ISLAN FAIR      66  55  67 CALM      29.78F                  
NEWBERRY       PTSUNNY   70  52  52 NW7       29.79F                  
S. S. MARIE    PTSUNNY   68  56  65 W6        29.78F                  
MUNISING         N/A     52  46  80 NE8       29.84F                  
$$
MIZ004>006-011>014-085-192200-
CENTRAL UPPER MICHIGAN
  
CITY           SKY/WX    TMP DP  RH WIND       PRES   REMARKS
MANISTIQUE     CLOUDY    68  54  61 N6        29.78F                  
ESCANABA       CLOUDY    65  55  70 SE7       29.80F                  
MENOMINEE      FAIR      66  56  70 E13       29.80F                  
SAWYER-GWINN   SUNNY     64  48  55 NE14      29.84F                  
$$
MIZ001>003-009>011-084-192200-
WESTERN UPPER MICHIGAN
  
CITY           SKY/WX    TMP DP  RH WIND       PRES   REMARKS
IRON MOUNTAIN  FAIR      71  48  43 NE12      29.80F                  
HOUGHTON       FAIR      69  45  41 E8        29.85F                  
COPPER HARBOR    N/A     50  44  80 CALM      29.85F                  
IRONWOOD       FAIR      70  47  43 NE12      29.83F                  
$$

ABBREVIATIONS USED IN REMARKS
   TC - TEMPERATURE IN CELSIUS
  WCI - WIND CHILL INDEX
   HX - HEAT INDEX
  VSB - VISIBILITY